TimePDT,TemperatureF,Dew PointF,Humidity,Sea Level PressureIn,VisibilityMPH,Wind Direction,Wind SpeedMPH,Gust SpeedMPH,PrecipitationIn,Events,Conditions,WindDirDegrees,DateUTC
12:56 AM,48.9,32.0,52,29.91,10.0,Calm,Calm,-,N/A,,Clear,0,2013-10-01 07:56:00
1:56 AM,46.0,30.9,56,29.92,10.0,Calm,Calm,-,N/A,,Clear,0,2013-10-01 08:56:00
2:56 AM,44.1,32.0,63,29.91,10.0,Calm,Calm,-,N/A,,Clear,0,2013-10-01 09:56:00
3:56 AM,43.0,33.1,68,29.91,10.0,South,6.9,-,N/A,,Clear,180,2013-10-01 10:56:00
4:56 AM,39.9,30.0,68,29.91,10.0,Calm,Calm,-,N/A,,Clear,0,2013-10-01 11:56:00
5:56 AM,39.9,30.0,68,29.91,10.0,SSE,4.6,-,N/A,,Clear,160,2013-10-01 12:56:00
6:15 AM,39.2,30.2,70,29.99,10.0,South,4.6,-,N/A,,Scattered Clouds,170,2013-10-01 13:15:00
6:56 AM,39.0,28.9,67,29.91,10.0,Calm,Calm,-,N/A,,Mostly Cloudy,0,2013-10-01 13:56:00
7:56 AM,46.0,32.0,58,29.92,10.0,Calm,Calm,-,N/A,,Scattered Clouds,0,2013-10-01 14:56:00
8:56 AM,54.0,37.0,53,29.93,10.0,Calm,Calm,-,N/A,,Scattered Clouds,0,2013-10-01 15:56:00
9:56 AM,60.1,39.0,46,29.94,10.0,Calm,Calm,-,N/A,,Scattered Clouds,0,2013-10-01 16:56:00
10:56 AM,66.0,37.9,36,29.93,10.0,Variable,5.8,-,N/A,,Overcast,0,2013-10-01 17:56:00
11:56 AM,69.1,37.0,31,29.92,10.0,NE,4.6,-,N/A,,Mostly Cloudy,50,2013-10-01 18:56:00
12:56 PM,71.1,36.0,28,29.90,10.0,NW,8.1,-,N/A,,Mostly Cloudy,320,2013-10-01 19:56:00
1:56 PM,73.9,34.0,23,29.88,10.0,North,5.8,-,N/A,,Mostly Cloudy,10,2013-10-01 20:56:00
2:56 PM,75.9,33.1,21,29.87,10.0,North,5.8,-,N/A,,Mostly Cloudy,10,2013-10-01 21:56:00
3:56 PM,75.9,32.0,20,29.85,10.0,NNW,8.1,-,N/A,,Mostly Cloudy,340,2013-10-01 22:56:00
4:56 PM,77.0,28.9,17,29.85,10.0,North,6.9,-,N/A,,Overcast,360,2013-10-01 23:56:00
5:56 PM,73.9,32.0,21,29.85,10.0,NE,8.1,-,N/A,,Mostly Cloudy,40,2013-10-02 00:56:00
6:56 PM,68.0,33.1,27,29.86,10.0,NE,5.8,-,N/A,,Mostly Cloudy,40,2013-10-02 01:56:00
7:56 PM,62.1,33.1,34,29.87,10.0,North,3.5,-,N/A,,Scattered Clouds,360,2013-10-02 02:56:00
8:56 PM,59.0,28.0,31,29.89,10.0,North,5.8,-,N/A,,Partly Cloudy,350,2013-10-02 03:56:00
9:56 PM,57.0,27.0,32,29.91,10.0,North,8.1,-,N/A,,Clear,10,2013-10-02 04:56:00
10:56 PM,54.0,26.1,34,29.91,10.0,Calm,Calm,-,N/A,,Clear,0,2013-10-02 05:56:00
11:56 PM,54.0,27.0,35,29.92,10.0,North,-9999.0,-,N/A,,Clear,0,2013-10-02 06:56:00